When you browse on this site, cookies collect data to enhance your experience and personalize the content and advertising you see.
Visit our Privacy Policy to learn more. By continuing to use the site, you agree to this use of cookies and data.
  • en France
  • Liste des pays
  • À 7 jours
  • Température de l'eau
  • Carte météo
  • Widgets météo
  • user-avatar
    Se connecter

    Météo par heure à Lashkar Gah

    Ce jour, 7 Décembre, Samedi

    Heure Température Précipitation Vent Pression Humidité
    00:00 +14°C° 0 mm 2 m/s 698 mmHg 29%
    01:00 +14°C° 0 mm 2 m/s 698 mmHg 29%
    02:00 +13°C° 0 mm 2 m/s 698 mmHg 29%
    03:00 +13°C° 0 mm 2 m/s 698 mmHg 29%
    04:00 +13°C° 0 mm 2 m/s 698 mmHg 30%
    05:00 +13°C° 0 mm 2 m/s 698 mmHg 30%
    06:00 +12°C° 0 mm 2 m/s 698 mmHg 31%
    07:00 +12°C° 0 mm 2 m/s 698 mmHg 32%
    08:00 +14°C° 0 mm 2 m/s 699 mmHg 28%
    09:00 +16°C° 0 mm 2 m/s 699 mmHg 25%
    10:00 +18°C° 0 mm 2 m/s 700 mmHg 21%
    11:00 +19°C° 0 mm 1 m/s 699 mmHg 20%
    12:00 +20°C° 0 mm 1 m/s 699 mmHg 19%
    13:00 +21°C° 0 mm 1 m/s 698 mmHg 18%
    14:00 +20°C° 0 mm 1 m/s 698 mmHg 20%
    15:00 +20°C° 0 mm 1 m/s 698 mmHg 22%
    16:00 +20°C° 0 mm 1 m/s 698 mmHg 24%
    17:00 +18°C° 0 mm 1 m/s 698 mmHg 26%
    18:00 +16°C° 0 mm 1 m/s 698 mmHg 28%
    19:00 +15°C° 0 mm 1 m/s 698 mmHg 30%
    20:00 +14°C° 0 mm 1 m/s 698 mmHg 30%
    21:00 +14°C° 0 mm 1 m/s 698 mmHg 31%
    22:00 +13°C° 0 mm 1 m/s 698 mmHg 31%
    23:00 +13°C° 0 mm 1 m/s 697 mmHg 30%

    Demain, 8 Décembre, Dimanche

    Heure Température Précipitation Vent Pression Humidité
    00:00 +13°C° 0 mm 2 m/s 697 mmHg 29%
    01:00 +13°C° 0 mm 2 m/s 697 mmHg 28%
    02:00 +13°C° 0 mm 2 m/s 697 mmHg 29%
    03:00 +12°C° 0 mm 2 m/s 697 mmHg 30%
    04:00 +12°C° 0 mm 2 m/s 697 mmHg 31%
    05:00 +12°C° 0 mm 2 m/s 697 mmHg 31%
    06:00 +12°C° 0 mm 2 m/s 697 mmHg 31%
    07:00 +12°C° 0 mm 2 m/s 697 mmHg 32%
    08:00 +14°C° 0 mm 2 m/s 698 mmHg 28%
    09:00 +14°C° 0 mm 3 m/s 698 mmHg 25%
    10:00 +17°C° 0 mm 3 m/s 699 mmHg 21%
    11:00 +18°C° 0 mm 3 m/s 698 mmHg 20%
    12:00 +19°C° 0 mm 3 m/s 698 mmHg 18%
    13:00 +20°C° 0 mm 3 m/s 697 mmHg 16%
    14:00 +19°C° 0 mm 3 m/s 697 mmHg 17%
    15:00 +19°C° 0 mm 3 m/s 696 mmHg 19%
    16:00 +19°C° 0 mm 3 m/s 696 mmHg 20%
    17:00 +18°C° 0 mm 3 m/s 696 mmHg 21%
    18:00 +17°C° 0 mm 4 m/s 696 mmHg 23%
    19:00 +15°C° 0 mm 4 m/s 696 mmHg 24%
    20:00 +15°C° 0 mm 4 m/s 696 mmHg 25%
    21:00 +14°C° 0 mm 4 m/s 696 mmHg 26%
    22:00 +14°C° 0 mm 4 m/s 696 mmHg 27%
    23:00 +14°C° 0 mm 4 m/s 696 mmHg 27%

    Après-demain, 9 Décembre, Lundi

    Heure Température Précipitation Vent Pression Humidité
    00:00 +14°C° 0 mm 4 m/s 696 mmHg 27%
    01:00 +14°C° 0 mm 4 m/s 695 mmHg 27%
    02:00 +14°C° 0 mm 4 m/s 695 mmHg 27%
    03:00 +14°C° 0 mm 4 m/s 695 mmHg 27%
    04:00 +14°C° 0 mm 4 m/s 695 mmHg 27%
    05:00 +14°C° 0 mm 4 m/s 695 mmHg 28%
    06:00 +14°C° 0 mm 4 m/s 696 mmHg 28%
    07:00 +13°C° 0 mm 4 m/s 696 mmHg 29%
    08:00 +15°C° 0 mm 5 m/s 696 mmHg 26%
    09:00 +16°C° 0 mm 5 m/s 697 mmHg 24%
    10:00 +17°C° 0 mm 5 m/s 697 mmHg 21%
    11:00 +19°C° 0 mm 5 m/s 696 mmHg 21%
    12:00 +20°C° 0 mm 4 m/s 696 mmHg 20%
    13:00 +21°C° 0 mm 4 m/s 696 mmHg 20%
    14:00 +21°C° 0 mm 3 m/s 695 mmHg 22%
    15:00 +20°C° 0 mm 3 m/s 695 mmHg 23%
    16:00 +20°C° 0 mm 3 m/s 695 mmHg 25%
    17:00 +19°C° 0 mm 3 m/s 695 mmHg 26%
    18:00 +18°C° 0 mm 4 m/s 695 mmHg 27%
    19:00 +18°C° 0 mm 4 m/s 695 mmHg 28%
    20:00 +17°C° 0 mm 4 m/s 695 mmHg 31%
    21:00 +17°C° 0 mm 4 m/s 695 mmHg 33%
    22:00 +16°C° 0 mm 3 m/s 695 mmHg 35%
    23:00 +16°C° 0.1 mm 3 m/s 695 mmHg 38%

    10 Décembre, Mardi

    Heure Température Précipitation Vent Pression Humidité
    00:00 +16°C° 0.1 mm 3 m/s 694 mmHg 41%
    01:00 +16°C° 0.1 mm 3 m/s 694 mmHg 44%
    02:00 +16°C° 0.1 mm 3 m/s 694 mmHg 45%
    03:00 +14°C° 0.1 mm 3 m/s 694 mmHg 47%
    04:00 +14°C° 0.1 mm 4 m/s 694 mmHg 48%
    05:00 +14°C° 0 mm 4 m/s 694 mmHg 50%
    06:00 +14°C° 0 mm 4 m/s 694 mmHg 51%
    07:00 +14°C° 0 mm 4 m/s 695 mmHg 53%
    08:00 +15°C° 0 mm 4 m/s 695 mmHg 51%
    09:00 +17°C° 0 mm 4 m/s 695 mmHg 49%
    10:00 +18°C° 0 mm 4 m/s 696 mmHg 47%
    11:00 +19°C° 0 mm 3 m/s 695 mmHg 45%
    12:00 +20°C° 0 mm 2 m/s 695 mmHg 43%
    13:00 +20°C° 0 mm 2 m/s 694 mmHg 41%
    14:00 +20°C° 0 mm 2 m/s 694 mmHg 42%
    15:00 +20°C° 0 mm 2 m/s 694 mmHg 43%
    16:00 +21°C° 0 mm 1 m/s 693 mmHg 44%
    17:00 +19°C° 0 mm 2 m/s 693 mmHg 47%
    18:00 +19°C° 0 mm 2 m/s 693 mmHg 50%
    19:00 +18°C° 0 mm 2 m/s 693 mmHg 53%
    20:00 +18°C° 0 mm 2 m/s 693 mmHg 54%
    21:00 +17°C° 0 mm 2 m/s 694 mmHg 54%
    22:00 +17°C° 0 mm 2 m/s 694 mmHg 55%
    23:00 +17°C° 0 mm 2 m/s 694 mmHg 56%

    11 Décembre, Mercredi

    Heure Température Précipitation Vent Pression Humidité
    00:00 +17°C° 0 mm 2 m/s 693 mmHg 57%
    01:00 +17°C° 0 mm 2 m/s 693 mmHg 59%
    02:00 +16°C° 0.2 mm 2 m/s 693 mmHg 64%
    03:00 +15°C° 0.2 mm 2 m/s 692 mmHg 69%
    04:00 +15°C° 0.2 mm 2 m/s 692 mmHg 74%
    05:00 +14°C° 0.8 mm 2 m/s 692 mmHg 77%
    06:00 +13°C° 0.8 mm 3 m/s 692 mmHg 81%
    07:00 +13°C° 0.8 mm 4 m/s 692 mmHg 84%
    08:00 +13°C° 0.6 mm 3 m/s 692 mmHg 85%
    09:00 +13°C° 0.6 mm 3 m/s 692 mmHg 85%
    10:00 +14°C° 0.6 mm 2 m/s 692 mmHg 85%
    11:00 +13°C° 1.2 mm 2 m/s 691 mmHg 87%
    12:00 +13°C° 1.2 mm 2 m/s 690 mmHg 88%
    13:00 +13°C° 1.2 mm 2 m/s 689 mmHg 90%
    14:00 +13°C° 0.3 mm 2 m/s 689 mmHg 87%
    15:00 +14°C° 0.3 mm 2 m/s 689 mmHg 84%
    16:00 +14°C° 0.3 mm 2 m/s 689 mmHg 81%
    17:00 +14°C° 0 mm 1 m/s 689 mmHg 84%
    18:00 +13°C° 0 mm 1 m/s 689 mmHg 86%
    19:00 +13°C° 0 mm 1 m/s 690 mmHg 89%
    20:00 +13°C° 0 mm 1 m/s 690 mmHg 89%
    21:00 +12°C° 0 mm 1 m/s 690 mmHg 89%
    22:00 +12°C° 0 mm 1 m/s 690 mmHg 90%
    23:00 +12°C° 0.3 mm 1 m/s 690 mmHg 89%

    12 Décembre, Jeudi

    Heure Température Précipitation Vent Pression Humidité
    00:00 +12°C° 0.3 mm 1 m/s 690 mmHg 89%
    01:00 +12°C° 0.3 mm 1 m/s 689 mmHg 88%
    02:00 +12°C° 0.6 mm 1 m/s 689 mmHg 87%
    03:00 +12°C° 0.6 mm 1 m/s 689 mmHg 87%
    04:00 +12°C° 0.6 mm 1 m/s 689 mmHg 86%
    05:00 +12°C° 0.4 mm 2 m/s 690 mmHg 87%
    06:00 +12°C° 0.4 mm 2 m/s 690 mmHg 87%
    07:00 +10°C° 0.4 mm 3 m/s 690 mmHg 88%
    08:00 +12°C° 0.1 mm 3 m/s 691 mmHg 81%
    09:00 +13°C° 0.1 mm 4 m/s 691 mmHg 74%
    10:00 +14°C° 0.1 mm 4 m/s 692 mmHg 66%
    11:00 +15°C° 0 mm 5 m/s 692 mmHg 57%
    12:00 +16°C° 0 mm 6 m/s 692 mmHg 48%
    13:00 +17°C° 0 mm 7 m/s 691 mmHg 38%
    14:00 +16°C° 0 mm 6 m/s 691 mmHg 37%
    15:00 +16°C° 0 mm 6 m/s 691 mmHg 36%
    16:00 +15°C° 0 mm 6 m/s 691 mmHg 35%
    17:00 +14°C° 0 mm 5 m/s 692 mmHg 38%
    18:00 +13°C° 0 mm 5 m/s 692 mmHg 41%
    19:00 +12°C° 0 mm 5 m/s 692 mmHg 44%
    20:00 +12°C° 0 mm 4 m/s 693 mmHg 46%
    21:00 +11°C° 0 mm 4 m/s 693 mmHg 49%
    22:00 +11°C° 0 mm 3 m/s 693 mmHg 51%
    23:00 +10°C° 0 mm 3 m/s 693 mmHg 53%
    Voir plus